[[{"header":{"parameterUnit":"m.s-1","parameterCategory":1,"la1":30.2991,"la2":30.254,"lo1":-89.0895,"lo2":-89.0444,"dy":0.0017,"dx":0.0017,"nx":28,"ny":28,"refTime":"2025-06-11T09:00:00:Z","depth":0,"parameterNumber":2,"parameterNumberName":"U-component_of_WINDS"},"data":[0,0,0,0,0,0,0,0,0,0,0,0,0,0,0,0,0,0,0,0,0,0,0,0,0,0,0,0,0,0,0,0,0,0,0,0,0,0,0,0,0,0,0,0,0,0,0,0,0,0,0,0,0,0,0,0,0,0,-1.5602,-1.5603,0,-1.5655,-1.5656,-1.5656,-1.5655,-1.5655,-1.5654,-1.5653,-1.5708,-1.571,-1.5712,0,0,0,0,0,0,0,0,0,0,0,0,0,-1.5502,-1.5504,-1.5602,-1.5603,-1.5604,-1.5655,-1.5656,-1.5656,-1.5656,-1.5655,-1.5654,-1.5653,-1.5707,-1.5709,-1.5712,0,0,0,0,0,0,0,0,0,0,0,0,0,-1.5549,-1.5505,-1.5602,-1.561,-1.5611,-1.5655,-1.5656,-1.5656,-1.5656,-1.5655,-1.5654,-1.5653,-1.5706,-1.5709,-1.5712,-1.5753,0,0,-1.5722,-1.5723,0,0,0,0,0,0,0,0,-1.5547,-1.5553,-1.5608,-1.5609,-1.561,-1.5648,-1.564,-1.5689,-1.5656,-1.5639,-1.5653,-1.5652,-1.5689,-1.5693,-1.5705,-1.5755,-1.5758,-1.5722,-1.5724,-1.5725,-1.5726,0,0,0,0,0,0,0,-1.5543,-1.5551,-1.5623,-1.5609,-1.561,-1.561,-1.5616,-1.5649,-1.5669,-1.564,-1.564,-1.5646,-1.5689,-1.5702,-1.5707,-1.5758,-1.5722,-1.5725,-1.5727,-1.5728,-1.5844,-1.5845,0,0,0,0,0,0,-1.5539,-1.5548,-1.5622,-1.5625,-1.5575,-1.5613,-1.5619,-1.5637,-1.5669,-1.5672,-1.5647,-1.5646,-1.5697,-1.5703,-1.5708,-1.5758,-1.5725,-1.5728,-1.573,-1.5843,-1.5844,-1.5846,0,0,0,0,0,0,-1.5536,-1.5545,-1.5619,-1.5586,-1.5596,-1.5616,-1.5636,-1.5638,-1.5651,-1.5674,-1.5677,-1.5657,-1.5697,-1.5704,-1.5742,-1.576,-1.573,-1.5733,-1.5842,-1.5843,-1.5845,-1.5857,0,0,0,0,0,0,-1.5534,-1.5544,-1.556,-1.5587,-1.5598,-1.5652,-1.5637,-1.564,-1.5657,-1.5656,-1.5684,-1.5688,-1.5696,-1.5737,-1.5745,-1.5763,-1.5735,-1.584,-1.5842,-1.5844,-1.5855,-1.5859,-1.5862,0,0,0,0,0,-1.553,-1.5561,-1.5561,-1.5569,-1.5617,-1.5653,-1.5659,-1.5668,-1.5658,-1.5674,-1.5688,-1.5687,-1.5756,-1.5741,-1.575,-1.5769,-1.5839,-1.5842,-1.5844,-1.5853,-1.5858,-1.5862,0,0,0,0,0,0,-1.5536,-1.5565,-1.5564,-1.5605,-1.5626,-1.5652,-1.5673,-1.5673,-1.5698,-1.5696,-1.5707,-1.5713,-1.5751,-1.5764,-1.5746,-1.581,-1.5796,-1.5801,-1.58,-1.5805,-1.5808,-1.5804,-1.5738,0,0,0,0,0,-1.5542,-1.5568,-1.5592,-1.5626,-1.5636,-1.5653,-1.5668,-1.5674,-1.5696,-1.5705,-1.5722,-1.5745,-1.5771,-1.5789,-1.5815,-1.5857,-1.5863,-1.5875,-1.5878,-1.5881,-1.5885,-1.5908,-1.5914,-1.5855,-1.5854,-1.5854,0,0,-1.5555,-1.5574,-1.559,-1.5627,-1.5644,-1.5671,-1.566,-1.5689,-1.5709,-1.571,-1.5746,-1.576,-1.5785,-1.5825,-1.5843,-1.5837,-1.5903,-1.5885,-1.5887,-1.5889,-1.5911,-1.5917,-1.5922,-1.5856,-1.5856,-1.5856,0,0,-1.5592,-1.5609,-1.5638,-1.5656,-1.5682,-1.5692,-1.57,-1.5726,-1.5734,-1.5771,-1.5772,-1.5796,-1.5842,-1.586,-1.5876,-1.5919,-1.5919,-1.5928,-1.5946,-1.5969,-1.5973,-1.5977,-1.5993,-1.5998,-1.5931,-1.5931,-1.5931,0,-1.5604,-1.5645,-1.5654,-1.5683,-1.57,-1.5701,-1.5731,-1.5748,-1.5781,-1.5793,-1.5785,-1.5843,-1.586,-1.5904,-1.5915,-1.5927,-1.5936,-1.5924,-1.5972,-1.5976,-1.598,-1.5995,-1.6001,-1.5932,-1.5932,-1.5932,-1.5932,0,-1.5659,-1.5687,-1.5708,-1.574,-1.5759,-1.5788,-1.5802,-1.582,-1.5824,-1.5836,-1.5873,-1.5894,-1.5924,-1.5935,-1.5939,-1.598,-1.5975,-1.5969,-1.5956,-1.5987,-1.6001,-1.6007,-1.5933,-1.5933,-1.5933,-1.5933,0,0,-1.5701,-1.5737,-1.5745,-1.5759,-1.5788,-1.581,-1.584,-1.5869,-1.5884,-1.5907,-1.5932,-1.5971,-1.5967,-1.5984,-1.599,-1.601,-1.6043,-1.6002,-1.6003,-1.6009,-1.6089,-1.6093,-1.6099,-1.6043,-1.6044,-1.6045,-1.6087,0,-1.5741,-1.5794,-1.5803,-1.5849,-1.5875,-1.5877,-1.5902,-1.5923,-1.5934,-1.5958,-1.5971,-1.5999,-1.599,-1.6001,-1.602,-1.6035,-1.6059,-1.6032,-1.6066,-1.6067,-1.606,-1.6107,-1.6111,-1.6149,-1.6092,-1.6093,-1.6094,0,-1.5795,-1.5819,-1.5867,-1.5892,-1.5904,-1.5927,-1.5954,-1.5977,-1.6,-1.6007,-1.6026,-1.603,-1.6061,-1.6046,-1.6089,-1.607,-1.6085,-1.6094,-1.6096,-1.61,-1.6082,-1.6111,-1.6162,-1.6168,-1.6103,-1.6102,-1.6101,0,-1.5821,-1.5865,-1.59,-1.5912,-1.5942,-1.5958,-1.5972,-1.5994,-1.6011,-1.6035,-1.6046,-1.6074,-1.6089,-1.611,-1.6121,-1.6109,-1.6163,-1.6149,-1.617,-1.617,-1.6181,-1.618,-1.6235,-1.6191,-1.6191,-1.6191,-1.6191,0,-1.5864,-1.5894,-1.5912,-1.5933,-1.5966,-1.5977,-1.6009,-1.6022,-1.6042,-1.6066,-1.6069,-1.6092,-1.6105,-1.613,-1.6139,-1.6173,-1.618,-1.6186,-1.6188,-1.6186,-1.6185,-1.6196,-1.6193,-1.6192,-1.6192,-1.6192,-1.6191,0,-1.5899,-1.5912,-1.595,-1.5975,-1.5982,-1.6006,-1.6027,-1.6048,-1.606,-1.609,-1.6098,-1.6116,-1.6145,-1.6158,-1.6194,-1.62,-1.6239,-1.6239,-1.6231,-1.6232,-1.6252,-1.625,-1.6315,-1.6324,-1.6274,-1.6274,-1.6275,0,-1.5926,-1.5949,-1.5976,-1.5993,-1.6006,-1.6032,-1.605,-1.6061,-1.6078,-1.6107,-1.6124,-1.6153,-1.6177,-1.6223,-1.624,-1.6267,-1.6268,-1.6289,-1.6272,-1.6269,-1.6268,-1.6267,-1.6269,-1.6292,-1.6292,-1.6293,-1.6293,0,-1.5973,-1.5978,-1.6002,-1.6029,-1.605,-1.6072,-1.6093,-1.6106,-1.612,-1.614,-1.617,-1.6188,-1.6225,-1.6254,-1.6282,-1.6296,-1.6297,-1.6298,-1.6305,-1.6302,-1.6297,-1.63,-1.6239,-1.6297,-1.6296,-1.6296,-1.6296,-1.6296,-1.6004,-1.6025,-1.6047,-1.6074,-1.6091,-1.6111,-1.6132,-1.6146,-1.6171,-1.6201,-1.6206,-1.6238,-1.626,-1.6299,-1.6313,-1.6338,-1.6333,-1.6342,-1.6345,-1.6347,-1.6348,-1.6293,-1.6344,-1.6343,-1.6343,-1.6343,-1.6343,0,-1.6051,-1.6066,-1.6091,-1.612,-1.6142,-1.614,-1.6164,-1.6182,-1.6209,-1.623,-1.6254,-1.6288,-1.6315,-1.6334,-1.6362,-1.6379,-1.638,-1.6386,-1.6385,-1.6388,-1.6351,-1.6342,-1.6384,-1.6384,-1.6384,-1.6384,-1.6384,-1.6384,-1.6078,-1.6112,-1.612,-1.6163,-1.6177,-1.6208,-1.6221,-1.6239,-1.6256,-1.6294,-1.6317,-1.6329,-1.6349,-1.6378,-1.6404,-1.6409,-1.6419,-1.6425,-1.6429,-1.6395,-1.639,-1.6386,-1.6378,-1.6427,-1.6427,-1.6464,-1.6465,-1.6465]},{"header":{"parameterUnit":"m.s-1","parameterCategory":1,"la1":30.2991,"la2":30.254,"lo1":-89.0895,"lo2":-89.0444,"dy":0.0017,"dx":0.0017,"nx":28,"ny":28,"refTime":"2025-06-11T09:00:00:Z","depth":0,"parameterNumber":3,"parameterNumberName":"V-component_of_WINDS"},"data":[0,0,0,0,0,0,0,0,0,0,0,0,0,0,0,0,0,0,0,0,0,0,0,0,0,0,0,0,0,0,0,0,0,0,0,0,0,0,0,0,0,0,0,0,0,0,0,0,0,0,0,0,0,0,0,0,0,0,3.596,3.5961,0,3.6022,3.6022,3.6023,3.5982,3.598,3.5978,3.5976,3.6036,3.604,3.6043,0,0,0,0,0,0,0,0,0,0,0,0,0,3.5804,3.5807,3.596,3.5961,3.5962,3.6021,3.6022,3.6023,3.5982,3.598,3.5978,3.5975,3.6035,3.6039,3.6043,0,0,0,0,0,0,0,0,0,0,0,0,0,3.5869,3.5808,3.596,3.5948,3.5948,3.6021,3.6022,3.6023,3.5983,3.598,3.5977,3.5974,3.6034,3.6039,3.6044,3.6131,0,0,3.6059,3.6061,0,0,0,0,0,0,0,0,3.5866,3.5875,3.5949,3.5949,3.5949,3.5991,3.5989,3.6059,3.5983,3.5969,3.5976,3.5973,3.6024,3.6029,3.6047,3.6134,3.6136,3.606,3.6063,3.6065,3.6066,0,0,0,0,0,0,0,3.5861,3.5872,3.5984,3.595,3.595,3.5939,3.5945,3.6002,3.6011,3.597,3.5968,3.5976,3.6023,3.6042,3.6048,3.6137,3.606,3.6064,3.6067,3.6069,3.6297,3.63,0,0,0,0,0,0,3.5858,3.5869,3.5982,3.5986,3.59,3.5944,3.5951,3.598,3.6011,3.6013,3.5978,3.5973,3.6035,3.6042,3.605,3.6152,3.6065,3.607,3.6072,3.6294,3.6297,3.6301,0,0,0,0,0,0,3.5855,3.5869,3.598,3.5927,3.594,3.595,3.5983,3.5983,3.6002,3.6016,3.6017,3.5996,3.6033,3.6043,3.6111,3.6154,3.6072,3.6076,3.629,3.6295,3.6299,3.6359,0,0,0,0,0,0,3.5851,3.5868,3.5902,3.5928,3.5943,3.6041,3.5986,3.5986,3.6011,3.6006,3.6034,3.6035,3.6032,3.6104,3.6116,3.6159,3.608,3.6286,3.6292,3.6298,3.6353,3.6365,3.6375,0,0,0,0,0,3.5845,3.5916,3.5904,3.5918,3.5986,3.6044,3.6052,3.6047,3.6015,3.6049,3.6057,3.6035,3.6148,3.6111,3.6124,3.617,3.6284,3.6291,3.6297,3.6348,3.6363,3.6375,0,0,0,0,0,0,3.5894,3.5919,3.5906,3.5987,3.6014,3.6037,3.6079,3.6063,3.6098,3.6091,3.6083,3.6089,3.616,3.6172,3.6131,3.6255,3.621,3.622,3.6245,3.6258,3.6269,3.6264,3.6084,0,0,0,0,0,3.5914,3.596,3.5979,3.6049,3.6063,3.6069,3.6094,3.6088,3.6114,3.6125,3.6139,3.6165,3.6205,3.6233,3.6272,3.6355,3.6359,3.6393,3.6404,3.6413,3.6421,3.6464,3.6479,3.6323,3.6323,3.6323,0,0,3.5957,3.5976,3.6005,3.606,3.6079,3.6126,3.6079,3.613,3.6164,3.6132,3.6197,3.6208,3.6236,3.6312,3.6346,3.6324,3.6465,3.6422,3.6429,3.6432,3.6473,3.6488,3.6501,3.6328,3.6327,3.6326,0,0,3.6057,3.6077,3.6137,3.6158,3.6188,3.6192,3.6206,3.6231,3.6238,3.6303,3.628,3.632,3.6391,3.6412,3.6431,3.6539,3.6519,3.6552,3.6609,3.6651,3.6663,3.6674,3.6711,3.6725,3.656,3.656,3.6561,0,3.6106,3.6176,3.617,3.6223,3.6246,3.6221,3.6281,3.6301,3.6342,3.6359,3.6334,3.6422,3.6439,3.6519,3.6545,3.6562,3.6577,3.6548,3.6662,3.6673,3.6683,3.6718,3.6732,3.6564,3.6564,3.6563,3.6563,0,3.6233,3.6282,3.6326,3.6367,3.6396,3.6452,3.6454,3.6483,3.6474,3.648,3.6546,3.6566,3.6607,3.6626,3.6618,3.6704,3.6689,3.6664,3.6618,3.6702,3.6734,3.6748,3.6569,3.6568,3.6567,3.6566,0,0,3.6366,3.6403,3.6419,3.6436,3.6468,3.6505,3.6559,3.6601,3.6626,3.6655,3.6699,3.676,3.6736,3.6759,3.6752,3.679,3.6872,3.676,3.676,3.6778,3.6966,3.6984,3.7,3.6859,3.6862,3.6864,3.6963,0,3.6467,3.6562,3.6558,3.6647,3.6691,3.6667,3.6714,3.6738,3.6744,3.6781,3.6788,3.6831,3.6797,3.681,3.6846,3.6854,3.6909,3.6847,3.6899,3.69,3.6891,3.7017,3.7037,3.713,3.6976,3.6978,3.698,0,3.6598,3.6632,3.6725,3.6749,3.6767,3.681,3.6846,3.6883,3.6909,3.6911,3.6936,3.6923,3.6976,3.6931,3.7003,3.6961,3.6982,3.6989,3.6992,3.6996,3.6944,3.7023,3.716,3.7173,3.7,3.6999,3.6997,0,3.6683,3.6752,3.6817,3.6833,3.6863,3.6893,3.6906,3.693,3.6954,3.6986,3.7002,3.704,3.706,3.7089,3.7086,3.7054,3.7159,3.7114,3.7161,3.7161,3.7183,3.7182,3.7324,3.7199,3.7199,3.7199,3.7199,0,3.6796,3.6853,3.6855,3.6895,3.6958,3.6952,3.7015,3.7025,3.7046,3.7086,3.7068,3.7105,3.71,3.7138,3.7136,3.7195,3.7205,3.7207,3.7205,3.7208,3.7207,3.722,3.7213,3.7203,3.7202,3.7201,3.72,0,3.6902,3.6906,3.6974,3.6997,3.7003,3.7049,3.7068,3.7104,3.7109,3.716,3.7172,3.7179,3.7222,3.7222,3.7272,3.727,3.7343,3.7335,3.7334,3.7332,3.7379,3.7374,3.7533,3.7553,3.7417,3.7418,3.7419,0,3.6973,3.7016,3.7044,3.707,3.7085,3.7127,3.7152,3.7148,3.7175,3.7207,3.7239,3.7281,3.7314,3.7384,3.7393,3.743,3.7421,3.7475,3.7427,3.7427,3.742,3.7417,3.7421,3.7484,3.7485,3.7486,3.7488,0,3.7098,3.7097,3.7135,3.7173,3.7203,3.7233,3.726,3.7282,3.7281,3.7311,3.7356,3.7381,3.7431,3.7472,3.7508,3.7521,3.7504,3.7503,3.7515,3.7517,3.7515,3.7515,3.7358,3.7499,3.7498,3.7497,3.7496,3.7496,3.7187,3.7225,3.7249,3.7291,3.7311,3.7337,3.7372,3.7382,3.7419,3.7459,3.7455,3.7503,3.7527,3.7573,3.7589,3.7626,3.7607,3.7626,3.7631,3.7635,3.7639,3.751,3.7633,3.7632,3.7632,3.7632,3.7632,0,3.731,3.7325,3.7364,3.7402,3.7435,3.7417,3.7446,3.7474,3.7517,3.7541,3.7574,3.7624,3.7663,3.7675,3.7713,3.774,3.7733,3.775,3.7747,3.775,3.7655,3.7639,3.7755,3.7755,3.7755,3.7755,3.7755,3.7755,3.7378,3.7439,3.7442,3.7512,3.7526,3.7575,3.7592,3.7615,3.7634,3.7691,3.7724,3.7732,3.775,3.7789,3.7824,3.7826,3.784,3.786,3.7859,3.777,3.7757,3.7745,3.7731,3.7864,3.7864,3.7952,3.7952,3.7953]}]]